When you browse on this site, cookies collect data to enhance your experience and personalize the content and advertising you see.
Visit our Privacy Policy to learn more. By continuing to use the site, you agree to this use of cookies and data.
  • En España
  • Lista de países
  • Para 7 días
  • Temperatura del agua
  • Mapa Satelital
  • El tiempo en el mapa
  • Informadores
  • user-avatar
    Iniciar sesión

    Tiempo cada hora Gold Coast

    Hoy, 22 Febrero, Viernes

    Tiempo Temperatura Precipitaciones Viento Presión Humedad
    00:00 +26°C° 0.1 mm 8 mps 753 mmHg 78%
    01:00 +26°C° 0.1 mm 8 mps 752 mmHg 78%
    02:00 +26°C° 0.2 mm 9 mps 752 mmHg 78%
    03:00 +26°C° 0.2 mm 9 mps 752 mmHg 79%
    04:00 +24°C° 0 mm 10 mps 752 mmHg 79%
    05:00 +26°C° 0.2 mm 10 mps 752 mmHg 77%
    06:00 +26°C° 0.2 mm 10 mps 752 mmHg 74%
    07:00 +26°C° 0.2 mm 11 mps 752 mmHg 72%
    08:00 +27°C° 0 mm 11 mps 753 mmHg 65%
    09:00 +28°C° 0 mm 11 mps 753 mmHg 59%
    10:00 +31°C° 0 mm 11 mps 753 mmHg 52%
    11:00 +31°C° 0 mm 11 mps 753 mmHg 49%
    12:00 +32°C° 0 mm 11 mps 752 mmHg 46%
    13:00 +32°C° 0 mm 11 mps 752 mmHg 43%
    14:00 +32°C° 0 mm 11 mps 752 mmHg 45%
    15:00 +31°C° 0 mm 11 mps 752 mmHg 47%
    16:00 +29°C° 0 mm 11 mps 752 mmHg 49%
    17:00 +28°C° 0 mm 11 mps 752 mmHg 53%
    18:00 +27°C° 0 mm 10 mps 753 mmHg 58%
    19:00 +24°C° 0 mm 10 mps 753 mmHg 62%
    20:00 +24°C° 0 mm 10 mps 754 mmHg 64%
    21:00 +24°C° 0 mm 9 mps 754 mmHg 66%
    22:00 +23°C° 0 mm 9 mps 754 mmHg 68%
    23:00 +23°C° 0 mm 9 mps 754 mmHg 70%

    Mañana, 23 Febrero, Sábado

    Tiempo Temperatura Precipitaciones Viento Presión Humedad
    00:00 +23°C° 0 mm 9 mps 754 mmHg 72%
    01:00 +23°C° 0 mm 9 mps 753 mmHg 73%
    02:00 +23°C° 0.1 mm 9 mps 753 mmHg 73%
    03:00 +23°C° 0.1 mm 9 mps 753 mmHg 73%
    04:00 +23°C° 0.1 mm 9 mps 753 mmHg 72%
    05:00 +23°C° 0.1 mm 9 mps 753 mmHg 70%
    06:00 +24°C° 0.1 mm 9 mps 754 mmHg 69%
    07:00 +24°C° 0.1 mm 10 mps 754 mmHg 67%
    08:00 +26°C° 0.1 mm 10 mps 754 mmHg 60%
    09:00 +28°C° 0.1 mm 10 mps 755 mmHg 54%
    10:00 +29°C° 0.1 mm 10 mps 755 mmHg 48%
    11:00 +29°C° 0 mm 10 mps 755 mmHg 46%
    12:00 +31°C° 0 mm 10 mps 755 mmHg 45%
    13:00 +31°C° 0 mm 10 mps 755 mmHg 43%
    14:00 +31°C° 0 mm 10 mps 755 mmHg 44%
    15:00 +31°C° 0 mm 10 mps 755 mmHg 45%
    16:00 +29°C° 0 mm 10 mps 754 mmHg 46%
    17:00 +28°C° 0 mm 10 mps 755 mmHg 50%
    18:00 +27°C° 0 mm 10 mps 755 mmHg 55%
    19:00 +24°C° 0 mm 10 mps 756 mmHg 59%
    20:00 +24°C° 0 mm 10 mps 756 mmHg 60%
    21:00 +24°C° 0 mm 10 mps 757 mmHg 61%
    22:00 +24°C° 0 mm 10 mps 757 mmHg 62%
    23:00 +24°C° 0 mm 10 mps 757 mmHg 62%

    Pasado mañana, 24 Febrero, Domingo

    Tiempo Temperatura Precipitaciones Viento Presión Humedad
    00:00 +24°C° 0 mm 10 mps 757 mmHg 63%
    01:00 +24°C° 0 mm 10 mps 756 mmHg 63%
    02:00 +24°C° 0 mm 10 mps 756 mmHg 65%
    03:00 +24°C° 0 mm 10 mps 756 mmHg 66%
    04:00 +23°C° 0 mm 10 mps 756 mmHg 68%
    05:00 +24°C° 0 mm 10 mps 757 mmHg 66%
    06:00 +24°C° 0 mm 10 mps 757 mmHg 64%
    07:00 +24°C° 0 mm 10 mps 758 mmHg 62%
    08:00 +26°C° 0 mm 10 mps 758 mmHg 60%
    09:00 +26°C° 0 mm 10 mps 759 mmHg 58%
    10:00 +27°C° 0 mm 10 mps 759 mmHg 56%
    11:00 +26°C° 0.1 mm 10 mps 759 mmHg 58%
    12:00 +26°C° 0.1 mm 10 mps 759 mmHg 60%
    13:00 +26°C° 0.1 mm 9 mps 758 mmHg 62%
    14:00 +26°C° 0 mm 10 mps 758 mmHg 59%
    15:00 +27°C° 0 mm 10 mps 758 mmHg 56%
    16:00 +27°C° 0 mm 10 mps 758 mmHg 54%
    17:00 +26°C° 0 mm 10 mps 759 mmHg 57%
    18:00 +24°C° 0 mm 9 mps 759 mmHg 61%
    19:00 +23°C° 0 mm 9 mps 760 mmHg 64%
    20:00 +23°C° 0.1 mm 9 mps 760 mmHg 66%
    21:00 +23°C° 0.1 mm 9 mps 760 mmHg 68%
    22:00 +23°C° 0.1 mm 9 mps 761 mmHg 70%
    23:00 +23°C° 0.1 mm 9 mps 760 mmHg 70%

    25 Febrero, Lunes

    Tiempo Temperatura Precipitaciones Viento Presión Humedad
    00:00 +22°C° 0.1 mm 9 mps 760 mmHg 71%
    01:00 +22°C° 0.1 mm 8 mps 760 mmHg 71%
    02:00 +22°C° 0.1 mm 8 mps 759 mmHg 73%
    03:00 +22°C° 0.1 mm 8 mps 759 mmHg 74%
    04:00 +22°C° 0.1 mm 8 mps 759 mmHg 75%
    05:00 +23°C° 0 mm 8 mps 760 mmHg 71%
    06:00 +23°C° 0 mm 9 mps 760 mmHg 68%
    07:00 +24°C° 0 mm 9 mps 761 mmHg 65%
    08:00 +26°C° 0 mm 9 mps 761 mmHg 59%
    09:00 +27°C° 0 mm 9 mps 761 mmHg 54%
    10:00 +29°C° 0 mm 9 mps 762 mmHg 48%
    11:00 +28°C° 0.1 mm 9 mps 761 mmHg 51%
    12:00 +28°C° 0.1 mm 8 mps 761 mmHg 54%
    13:00 +27°C° 0.1 mm 8 mps 761 mmHg 56%
    14:00 +27°C° 0.2 mm 8 mps 760 mmHg 58%
    15:00 +27°C° 0.2 mm 8 mps 760 mmHg 60%
    16:00 +27°C° 0.2 mm 8 mps 760 mmHg 62%
    17:00 +26°C° 0.2 mm 7 mps 760 mmHg 67%
    18:00 +24°C° 0.2 mm 7 mps 761 mmHg 72%
    19:00 +22°C° 0.2 mm 7 mps 761 mmHg 77%
    20:00 +22°C° 0.2 mm 6 mps 761 mmHg 77%
    21:00 +22°C° 0.2 mm 6 mps 762 mmHg 78%
    22:00 +22°C° 0.2 mm 6 mps 762 mmHg 78%
    23:00 +22°C° 0.2 mm 6 mps 761 mmHg 81%

    26 Febrero, Martes

    Tiempo Temperatura Precipitaciones Viento Presión Humedad
    00:00 +22°C° 0.2 mm 6 mps 761 mmHg 83%
    01:00 +21°C° 0.2 mm 6 mps 760 mmHg 86%
    02:00 +21°C° 0.1 mm 6 mps 760 mmHg 84%
    03:00 +21°C° 0.1 mm 6 mps 760 mmHg 83%
    04:00 +21°C° 0.1 mm 6 mps 759 mmHg 81%
    05:00 +22°C° 0.2 mm 6 mps 760 mmHg 80%
    06:00 +22°C° 0.2 mm 6 mps 760 mmHg 79%
    07:00 +23°C° 0.2 mm 6 mps 760 mmHg 78%
    08:00 +24°C° 0.2 mm 6 mps 761 mmHg 72%
    09:00 +26°C° 0.2 mm 6 mps 761 mmHg 65%
    10:00 +27°C° 0.2 mm 6 mps 761 mmHg 58%
    11:00 +28°C° 0 mm 6 mps 761 mmHg 54%
    12:00 +29°C° 0 mm 6 mps 760 mmHg 50%
    13:00 +30°C° 0 mm 6 mps 760 mmHg 46%
    14:00 +29°C° 0 mm 6 mps 760 mmHg 48%
    15:00 +29°C° 0 mm 6 mps 759 mmHg 50%
    16:00 +28°C° 0 mm 6 mps 759 mmHg 52%
    17:00 +27°C° 0.1 mm 6 mps 759 mmHg 59%
    18:00 +25°C° 0.1 mm 5 mps 760 mmHg 66%
    19:00 +23°C° 0.1 mm 5 mps 760 mmHg 73%
    20:00 +23°C° 0.1 mm 5 mps 760 mmHg 75%
    21:00 +22°C° 0.1 mm 5 mps 760 mmHg 77%
    22:00 +22°C° 0.1 mm 5 mps 760 mmHg 79%
    23:00 +22°C° 0.1 mm 5 mps 760 mmHg 79%

    27 Febrero, Miércoles

    Tiempo Temperatura Precipitaciones Viento Presión Humedad
    00:00 +22°C° 0.1 mm 5 mps 760 mmHg 80%
    01:00 +22°C° 0.1 mm 4 mps 759 mmHg 80%
    02:00 +21°C° 0.1 mm 4 mps 759 mmHg 81%
    03:00 +21°C° 0.1 mm 4 mps 759 mmHg 82%
    04:00 +21°C° 0.1 mm 4 mps 759 mmHg 83%
    05:00 +22°C° 0.1 mm 4 mps 759 mmHg 81%
    06:00 +22°C° 0.1 mm 5 mps 759 mmHg 79%
    07:00 +23°C° 0.1 mm 5 mps 760 mmHg 77%
    08:00 +25°C° 0.1 mm 5 mps 760 mmHg 71%
    09:00 +26°C° 0.1 mm 5 mps 760 mmHg 65%
    10:00 +28°C° 0.1 mm 6 mps 760 mmHg 59%
    11:00 +28°C° 0.1 mm 6 mps 760 mmHg 56%
    12:00 +29°C° 0.1 mm 6 mps 759 mmHg 53%
    13:00 +30°C° 0.1 mm 6 mps 759 mmHg 50%
    14:00 +29°C° 0 mm 6 mps 759 mmHg 51%
    15:00 +29°C° 0 mm 6 mps 759 mmHg 52%
    16:00 +29°C° 0 mm 6 mps 759 mmHg 53%
    17:00 +27°C° 0.1 mm 6 mps 759 mmHg 61%
    18:00 +26°C° 0.1 mm 6 mps 760 mmHg 69%
    19:00 +23°C° 0.1 mm 5 mps 760 mmHg 76%
    20:00 +23°C° 0.2 mm 5 mps 760 mmHg 79%
    21:00 +22°C° 0.2 mm 5 mps 761 mmHg 82%
    22:00 +22°C° 0.2 mm 5 mps 761 mmHg 85%
    23:00 +22°C° 0.1 mm 5 mps 761 mmHg 85%
    Mostrar más